Probability
0 0 0 0 0 0 0 0 0 0 0 0 0 0 0 0 0 0 0 0 0 0 0 0 0 0 0 0 0 0 0 0 0 0 0 0 0 0 0 0 0 0 0
0 0 0 0 0 0 0 0 0 0 0 0 0 0 0 0 0 0 0 0 0 0 0 0 0 0 0 0 0 0 0 0 0 0 0 0 0 0 0 0 0 0 0
0 0 0 0 0 0 0 0 0 0 0 0 0 0 0 0 0 0 0 0 0 0 0 0 0 0 0 0 0 0 0 0 0 0 0 0 0 0 0 0 0 0 0
0 0 0 0 0 0 0 0 0 0 0 0 0 0 0 0 0 0 0 0 0 0 0 0 0 0 0 0 0 0 0 0 0 0 0 0 0 0 0 0 0 0 0
0 0 0 0 0 0 0 0 0 0 0 0 0 0 0 0 0 0 0 0 0 0 0 0 0 0 0 0 0 0 0 0 0 0 0 0 0 0 0 0 0 0 0
0 0 0 0 0 0 0 0 0 0 0 0 0 0 0 0 0 0 0 0 0 0 0 0 0 0 0 0 0 0 0 0 0 0 0 0 0 0 0 0 0 0 0
0 0 0 0 0 0 0 0 0 0 0 0 0 0 0 0 0 0 0 0 0 0 0 0 0 0 0 0 0 0 0 0 0 0 0 0 0 0 0 0 0 0 0
0 0 0 0 0 0 0 0 0 0 0 0 0 0 0 0 0 0 0 0 0 0 0 0 0 0 0 0 0 0 0 0 0 0 0 0 0 0 0 0 0 0 0
0 0 0 0 0 0 0 0 0 0 0 0 0 0 0 0 0 0 0 0 0 0 0 0 0 0 0 0 0 0 0 0 0 0 0 0 0 0 0 0 0 0 0
0 0 0 0 0 0 0 0 0 0 0 0 0 0 0 0 0 0 0 0 0 0 0 0 0 0 0 0 0 0 0 0 0 0 0 0 0 0 0 0 0 0 0
0 0 0 0 0 0 0 0 0 0 0 0 0 0 0 0 0 0 0 0 0 0 0 0 0 0 0 0 0 0 0 0 0 0 0 0 0 0 0 0 0 0 0
0 0 0 0 0 0 0 0 0 0 0 0 0 0 0 0 0 0 0 0 0 0 0 0 0 0 0 0 0 0 0 0 0 0 0 0 0 0 0 0 0 0 0
0 0 0 0 0 0 0 0 0 0 0 0 0 0 0 0 0 0 0 0 0 0 0 0 0 0 0 0 0 0 0 0 0 0 0 0 0 0 0 0 0 0 0
0 0 0 0 0 0 0 0 0 0 0 0 0 0 0 0 0 0 0 0 0 0 0 0 0 0 0 0 0 0 0 0 0 0 0 0 0 0 0 0 0 0 0
0 0 0 0 0 0 0 0 0 0 0 0 0 0 0 0 0 0 0 0 0 0 0 0 0 0 0 0 0 0 0 0 0 0 0 0 0 0 0 0 0 0 0
0 0 0 0 0 0 0 0 0 0 0 0 0 0 0 0 0 0 0 0 0 0 0 0 0 0 0 0 0 0 0 0 0 0 0 0 0 0 0 0 0 0 0
0 0 0 0 0 0 0 0 0 0 0 0 0 0 0 0 0 0 0 0 0 0 0 0 0 0 0 0 0 0 0 0 0 0 0 0 0 0 0 0 0 0 0
0 0 0 0 0 0 0 0 0 0 0 0 0 0 0 0 0 0 0 0 0 0 0 0 0 0 0 0 0 0 0 0 0 0 0 0 0 0 0 0 0 0 0
0 0 0 0 0 0 0 0 0 0 0 0 0 0 0 0 0 0 0 0 0 0 0 0 0 0 0 0 0 0 0 0 0 0 0 0 0 0 0 0 0 0 0
0 0 0 0 0 0 0 0 0 0 0 0 0 0 0 0 0 0 0 0 0 0 0 0 0 0 0 0 0 0 0 0 0 0 0 0 0 0 0 0 0 0 0
0 0 0 0 0 0 0 0 0 0 0 0 0 0 0 0 0 0 0 0 0 0 0 0 0 0 0 0 0 0 0 0 0 0 0 0 0 0 0 0 0 0 0
0 0 0 0 0 0 0 0 0 0 0 0 0 0 0 0 0 0 0 0 0 0 0 0 0 0 0 0 0 0 0 0 0 0 0 0 0 0 0 0 0 0 0
0 0 0 0 0 0 0 0 0 0 0 0 0 0 0 0 0 0 0 0 0 0 0 0 0 0 0 0 0 0 0 0 0 0 0 0 0 0 0 0 0 0 0
0 0 0 0 0 0 0 0 0 0 0 0 0 0 0 0 0 0 0 0 0 0 0 0 0 0 0 0 0 0 0 0 0 0 0 0 0 0 0 0 0 0 0
0 0 0 0 0 0 0 0 0 0 0 0 0 0 0 0 0 0 0 0 0 0 0 0 0 0 0 0 0 0 0 0 0 0 0 0 0 0 0 0 0 0 0
0 0 0 0 0 0 0 0 0 0 0 0 0 0 0 0 0 0 0 0 0 0 0 0 0 0 0 0 0 0 0 0 0 0 0 0 0 0 0 0 0 0 0
Height
5689 5690 5690 5690 5690 5690 5689 5688 5686 5683 5680 5676 5671 5666 5661 5655 5649 5643 5635 5628 5621 5612 5604 5596 5586 5577 5567 5556 5546 5534 5521 5506 5497 5495 5482 5465 5446 5424 5404 5384 5365 5350 5339
5681 5682 5683 5683 5683 5682 5681 5679 5677 5674 5670 5666 5661 5655 5649 5643 5637 5630 5622 5614 5606 5598 5589 5580 5570 5560 5550 5538 5526 5513 5498 5481 5463 5454 5448 5431 5412 5390 5372 5357 5341 5326 5314
5675 5675 5676 5676 5675 5674 5673 5671 5668 5664 5660 5656 5650 5644 5638 5631 5624 5617 5609 5601 5592 5583 5573 5564 5553 5543 5531 5519 5505 5490 5474 5456 5436 5417 5407 5394 5379 5363 5348 5337 5324 5312 5301
5668 5669 5669 5668 5668 5666 5664 5662 5658 5655 5650 5645 5639 5633 5626 5619 5611 5604 5595 5586 5577 5567 5557 5547 5536 5523 5511 5497 5482 5465 5447 5429 5410 5391 5377 5365 5354 5343 5331 5322 5313 5302 5292
5661 5662 5662 5661 5660 5658 5656 5653 5649 5644 5639 5634 5627 5621 5614 5606 5598 5589 5581 5572 5562 5552 5541 5529 5517 5503 5488 5472 5455 5438 5419 5400 5384 5370 5358 5347 5338 5328 5320 5310 5302 5295 5286
5655 5655 5655 5654 5652 5650 5647 5643 5639 5634 5628 5622 5616 5609 5601 5593 5584 5575 5566 5557 5547 5536 5524 5512 5498 5482 5466 5450 5431 5412 5392 5374 5361 5352 5343 5334 5325 5317 5309 5301 5293 5286 5279
5649 5648 5648 5646 5644 5641 5637 5633 5628 5623 5617 5610 5603 5596 5588 5579 5570 5561 5552 5542 5531 5518 5505 5492 5477 5460 5442 5426 5410 5393 5376 5359 5346 5338 5331 5323 5316 5308 5302 5295 5287 5279 5270
5642 5641 5640 5638 5635 5632 5628 5623 5618 5612 5605 5598 5591 5583 5575 5566 5557 5547 5538 5527 5514 5500 5485 5470 5455 5439 5420 5404 5390 5376 5361 5348 5338 5329 5322 5314 5307 5300 5294 5288 5281 5275 5266
5635 5634 5632 5629 5626 5622 5618 5612 5607 5600 5594 5587 5579 5571 5563 5554 5544 5533 5522 5511 5498 5483 5466 5448 5432 5417 5400 5384 5370 5359 5349 5338 5329 5321 5314 5307 5300 5293 5287 5281 5276 5269 5262
5627 5626 5623 5620 5617 5612 5607 5602 5596 5589 5582 5575 5566 5558 5550 5541 5530 5519 5506 5495 5481 5466 5448 5428 5409 5393 5378 5364 5354 5346 5338 5330 5323 5316 5309 5302 5295 5289 5282 5275 5269 5263 5256
5620 5617 5615 5611 5607 5602 5597 5591 5585 5578 5571 5563 5555 5546 5536 5526 5515 5502 5487 5473 5458 5444 5426 5409 5391 5375 5362 5352 5343 5336 5329 5322 5316 5310 5304 5298 5292 5285 5278 5271 5264 5257 5251
5612 5609 5606 5602 5597 5592 5587 5581 5574 5567 5559 5551 5543 5533 5521 5509 5497 5485 5470 5453 5436 5421 5405 5389 5374 5361 5351 5342 5335 5328 5322 5316 5310 5305 5299 5293 5287 5281 5275 5268 5261 5254 5248
5604 5600 5597 5593 5588 5582 5576 5570 5563 5555 5548 5539 5530 5520 5509 5495 5482 5468 5453 5436 5418 5402 5387 5372 5360 5350 5342 5334 5328 5322 5317 5311 5306 5300 5294 5288 5282 5276 5271 5265 5258 5252 5246
5595 5592 5588 5583 5578 5572 5566 5559 5551 5544 5536 5527 5517 5506 5495 5481 5466 5452 5436 5419 5403 5387 5373 5360 5349 5341 5334 5327 5322 5316 5311 5305 5300 5295 5289 5283 5277 5272 5267 5262 5256 5251 5245
5587 5583 5579 5574 5568 5562 5555 5548 5541 5532 5523 5513 5503 5491 5478 5465 5448 5432 5415 5399 5384 5371 5360 5350 5342 5334 5328 5322 5316 5310 5305 5299 5294 5288 5283 5278 5273 5267 5262 5258 5253 5248 5243
5579 5574 5569 5564 5558 5552 5545 5537 5528 5519 5509 5497 5485 5472 5458 5443 5427 5412 5396 5380 5367 5357 5348 5341 5335 5329 5323 5318 5312 5306 5300 5295 5289 5283 5278 5273 5268 5263 5258 5254 5250 5246 5241
5570 5565 5560 5554 5548 5542 5535 5527 5518 5507 5494 5481 5468 5454 5438 5422 5407 5393 5380 5367 5356 5348 5341 5335 5329 5324 5319 5314 5308 5302 5296 5290 5284 5279 5273 5268 5263 5259 5254 5250 5246 5243 5239
5561 5556 5551 5545 5539 5532 5524 5515 5506 5495 5484 5469 5453 5437 5421 5405 5390 5378 5367 5357 5348 5341 5335 5330 5325 5320 5315 5310 5304 5298 5292 5286 5280 5274 5268 5263 5259 5254 5250 5247 5243 5240 5237
5552 5547 5541 5535 5528 5521 5512 5503 5492 5480 5467 5453 5438 5422 5405 5390 5376 5365 5356 5349 5343 5337 5332 5327 5323 5318 5312 5306 5300 5294 5288 5282 5276 5270 5265 5260 5255 5250 5247 5244 5240 5237 5235
5543 5538 5532 5525 5518 5509 5500 5489 5477 5464 5450 5435 5420 5406 5392 5378 5367 5357 5349 5343 5339 5334 5330 5326 5321 5315 5310 5304 5297 5291 5285 5279 5273 5267 5261 5256 5252 5248 5244 5241 5238 5235 5233
5535 5529 5522 5515 5506 5497 5487 5475 5462 5448 5434 5419 5403 5388 5376 5366 5358 5351 5345 5340 5336 5332 5328 5324 5319 5314 5308 5302 5295 5289 5283 5277 5271 5265 5259 5254 5249 5245 5241 5238 5236 5233 5231
5526 5519 5512 5504 5495 5484 5473 5460 5447 5432 5417 5402 5388 5375 5364 5356 5350 5345 5342 5338 5335 5332 5328 5323 5318 5313 5307 5301 5295 5288 5282 5276 5270 5264 5258 5253 5247 5243 5239 5236 5234 5232 5230
5517 5510 5502 5492 5482 5471 5458 5444 5431 5416 5401 5387 5375 5365 5357 5351 5346 5343 5340 5337 5335 5331 5328 5323 5319 5313 5307 5301 5295 5289 5282 5276 5270 5263 5258 5252 5247 5243 5239 5235 5233 5231 5229
5507 5499 5490 5480 5469 5457 5443 5429 5415 5400 5387 5375 5365 5357 5351 5347 5344 5342 5340 5338 5335 5332 5328 5324 5319 5314 5308 5302 5296 5289 5283 5277 5271 5265 5259 5253 5248 5243 5239 5235 5232 5230 5229
5497 5488 5479 5468 5456 5443 5429 5415 5400 5387 5375 5366 5358 5352 5348 5345 5344 5342 5341 5339 5336 5333 5330 5325 5320 5315 5309 5303 5297 5291 5285 5278 5272 5267 5261 5255 5250 5245 5240 5237 5233 5231 5230
5486 5477 5466 5455 5442 5429 5415 5401 5387 5376 5366 5359 5353 5349 5347 5346 5345 5343 5342 5340 5338 5335 5331 5327 5322 5317 5311 5306 5300 5294 5288 5282 5276 5270 5264 5258 5253 5247 5243 5239 5236 5233 5232
Wind_Speed
32 32 32 32 33 34 35 36 38 40 42 44 46 49 51 53 55 57 59 61 64 66 69 71 73 73 75 77 81 85 91 97 101 102 106 112 115 117 115 112 107 100 93
32 32 32 32 33 33 35 37 39 41 43 45 47 50 52 55 57 59 61 64 66 69 71 72 73 75 78 82 86 92 98 104 110 113 113 113 109 103 96 88 80 74 70
32 31 31 32 33 34 36 38 40 42 44 46 49 51 54 56 58 61 64 66 69 70 72 73 75 78 82 87 93 98 104 109 113 115 111 102 91 80 71 64 59 55 53
30 30 31 31 33 35 37 39 41 43 45 48 51 53 56 58 61 63 66 68 70 71 73 75 79 83 89 94 99 105 109 111 109 105 96 82 69 60 56 50 45 42 41
29 29 30 31 33 35 38 40 42 44 47 50 53 55 58 60 63 66 68 69 70 71 74 78 83 89 95 100 105 108 108 105 97 88 75 63 55 50 45 41 38 35 36
28 29 30 32 34 36 38 41 43 46 49 52 55 57 60 63 65 67 68 69 71 74 78 83 89 95 100 104 107 105 99 91 80 69 59 53 48 43 39 36 34 32 32
27 29 31 32 34 37 39 42 45 49 51 54 56 59 62 64 66 67 68 70 74 79 84 89 94 100 104 105 101 93 82 72 64 56 50 46 42 38 34 31 30 31 34
28 29 31 33 35 38 41 44 47 50 53 55 58 61 63 64 65 66 69 73 78 84 89 94 99 102 102 99 91 78 66 57 52 48 44 41 37 34 32 31 29 29 32
28 29 31 34 37 40 43 46 48 51 54 57 59 61 62 63 65 68 73 77 82 88 93 98 101 101 96 88 76 63 53 47 44 41 40 38 35 35 33 31 30 30 29
28 30 33 36 39 41 44 47 50 53 55 58 59 60 61 64 67 72 77 82 87 91 96 99 99 93 83 72 61 51 44 39 36 35 35 34 34 34 34 34 33 31 29
29 32 35 38 40 42 45 48 51 54 55 56 57 60 63 67 72 77 83 88 91 95 97 95 89 80 68 58 49 42 37 34 32 32 31 31 31 31 32 33 33 32 29
31 34 36 38 41 44 46 49 51 53 53 55 57 62 67 72 76 81 87 91 95 96 93 86 76 64 55 47 40 36 33 31 30 30 30 30 29 29 30 31 31 31 28
32 34 36 39 42 45 47 49 50 51 53 56 60 65 70 75 80 85 89 93 94 91 83 72 62 52 44 38 35 32 29 28 28 29 29 29 29 28 27 27 28 28 26
33 35 37 40 43 45 47 48 49 52 56 60 64 68 73 79 84 88 91 92 89 80 69 59 50 42 37 33 31 29 28 29 29 28 28 28 28 28 27 25 24 23 21
33 36 39 41 43 44 45 47 51 55 59 63 68 73 78 83 88 91 92 88 78 67 56 46 39 34 31 31 30 30 31 30 30 30 29 28 28 27 26 24 23 21 18
35 38 40 41 42 43 46 49 54 58 63 68 74 79 84 88 91 90 85 75 64 55 45 37 31 29 28 27 28 30 30 30 30 29 29 28 26 25 24 23 21 19 16
36 38 39 40 41 44 47 51 56 61 68 73 79 83 87 89 88 83 72 61 52 44 36 30 28 26 26 27 28 29 29 30 29 29 28 27 25 24 22 21 19 17 15
36 37 38 40 43 46 50 55 60 64 70 76 82 86 88 86 80 70 59 50 42 35 29 26 25 25 26 27 28 28 29 29 29 28 27 25 24 22 20 19 17 15 13
36 37 39 42 45 49 54 59 65 70 75 80 85 87 84 78 68 58 49 40 33 27 24 23 23 25 26 27 28 28 28 28 27 26 25 24 22 20 18 17 15 14 12
35 38 41 44 49 54 59 64 70 75 80 84 86 83 77 66 55 46 38 31 25 21 21 21 23 24 26 27 28 28 28 27 27 26 25 23 21 19 17 16 14 13 11
37 40 44 48 53 58 64 69 74 79 83 86 83 77 67 55 44 35 27 22 19 18 19 21 22 24 26 27 28 28 27 27 26 25 24 22 20 19 17 15 13 11 10
39 43 48 53 58 63 69 74 78 82 85 82 74 65 54 42 33 25 19 16 15 16 18 19 21 24 25 26 26 27 27 26 25 24 24 22 21 19 17 14 12 10 8
43 48 52 57 63 68 73 78 81 83 80 73 63 52 40 31 23 17 13 12 13 15 17 19 22 24 25 26 26 27 27 26 25 25 24 22 20 18 16 14 12 9 7
47 52 57 62 67 72 76 80 82 79 72 61 51 39 29 20 14 11 10 11 12 14 16 19 22 24 25 26 27 28 27 26 25 25 24 22 21 19 17 15 12 9 6
51 56 61 66 71 75 78 80 78 70 60 49 38 27 18 12 8 8 8 10 12 14 17 19 22 25 26 27 28 28 28 27 26 26 25 24 23 21 19 17 13 9 7
55 60 65 70 74 77 79 76 69 58 48 38 26 16 10 6 6 7 9 10 13 15 17 20 23 25 26 27 27 28 29 28 28 28 27 26 25 23 20 18 15 11 8
Wind_Direction
248 252 256 261 265 270 274 279 283 287 290 292 294 296 297 299 300 301 302 303 303 304 304 305 305 305 305 306 306 306 307 306 306 306 305 305 304 302 301 299 298 297 295
248 253 258 263 268 273 278 282 286 289 291 293 295 297 298 300 301 302 303 304 304 305 305 306 306 306 307 307 308 308 308 308 308 308 307 306 305 303 302 301 300 299 298
249 254 260 266 271 276 280 284 287 290 293 295 297 298 300 301 302 303 304 305 306 306 306 307 308 308 309 309 309 310 310 310 310 309 309 309 308 306 305 304 304 302 301
250 256 263 268 274 279 283 286 289 292 294 296 298 300 301 302 304 305 305 306 307 308 308 309 310 310 310 311 311 311 311 311 311 310 311 311 311 310 309 309 308 307 306
252 259 266 272 277 281 284 288 291 294 296 298 300 301 303 304 305 306 306 307 308 309 310 311 311 312 312 313 313 313 313 312 312 312 313 313 313 313 313 313 313 312 309
256 263 270 275 279 283 287 291 293 296 297 300 302 303 304 305 306 307 308 309 310 311 311 312 313 313 314 314 315 315 314 314 313 314 315 316 317 317 318 318 318 317 313
262 268 273 278 283 287 290 293 296 298 300 302 303 305 306 307 308 309 310 311 312 312 313 313 314 315 315 315 315 315 314 313 314 316 317 318 319 320 322 323 322 322 319
267 272 277 282 286 290 293 295 298 300 302 303 305 306 307 308 309 310 311 312 313 314 315 315 316 316 316 316 316 315 314 314 315 317 318 321 323 324 326 328 329 329 327
272 277 282 286 289 293 295 298 300 302 303 304 306 307 308 310 311 311 312 314 315 315 316 316 317 317 316 316 316 316 316 316 317 318 320 322 324 326 327 329 331 333 332
277 282 286 289 293 295 298 300 301 303 304 306 307 309 310 311 312 312 314 315 316 317 317 317 318 317 317 317 317 317 317 317 318 319 320 321 323 325 327 329 333 337 337
282 286 290 292 295 297 299 301 303 304 306 308 309 310 311 312 314 315 317 317 318 318 318 318 318 317 317 317 318 319 320 320 320 320 320 320 322 326 328 331 334 337 340
286 289 292 295 297 300 301 303 305 306 308 309 311 312 313 314 316 317 318 318 319 319 319 319 318 317 317 318 319 320 321 322 322 321 321 322 324 327 329 331 334 336 341
290 293 296 298 300 302 304 305 307 308 310 311 312 313 314 316 317 318 319 319 319 320 320 318 318 318 318 319 320 322 322 322 323 323 324 325 326 327 330 333 335 337 340
294 297 299 301 303 304 306 307 309 310 311 312 313 315 316 317 318 319 319 320 320 320 319 318 318 319 320 321 322 324 324 324 325 325 326 326 327 328 331 333 335 336 338
298 300 302 304 305 307 308 309 310 311 312 314 315 317 318 318 319 320 321 321 321 320 320 320 320 321 323 324 326 327 327 327 326 327 327 327 327 328 328 330 333 336 338
301 303 305 307 308 309 310 311 312 314 315 317 318 319 320 320 321 321 322 322 322 322 322 323 323 324 325 326 327 328 328 328 327 326 325 325 324 325 326 327 329 334 337
304 306 308 309 310 310 312 313 315 316 318 319 320 321 321 321 322 323 323 323 323 323 325 326 327 328 329 330 330 330 330 330 329 328 327 326 324 324 325 325 326 330 334
307 308 309 310 311 312 314 316 317 318 319 320 321 322 322 322 323 323 324 324 324 326 328 330 332 333 333 334 333 333 333 333 333 333 332 330 328 326 326 326 327 328 331
308 309 311 312 314 315 317 319 320 321 321 322 322 322 323 323 323 324 324 325 327 329 332 335 336 337 337 338 338 337 337 337 337 337 336 335 334 332 330 329 329 330 331
310 312 313 315 317 318 320 321 322 322 323 323 323 323 323 323 323 324 325 327 330 334 338 340 342 343 344 344 344 344 344 343 342 341 340 339 337 336 335 335 335 335 333
312 315 316 318 319 321 322 323 323 323 323 323 324 324 324 324 325 325 327 330 336 340 344 347 349 350 350 350 350 350 349 349 348 348 348 346 344 342 341 340 339 338 337
315 317 319 320 322 323 324 324 324 324 324 324 325 325 325 326 327 329 333 339 345 348 352 355 356 356 355 355 356 355 354 353 353 354 354 354 353 352 350 347 344 342 340
318 320 321 323 324 324 324 325 324 325 325 325 326 326 326 328 330 336 344 352 356 359 2 2 2 2 2 2 2 2 1 1 1 1 1 360 359 358 358 356 354 352 354
320 322 323 324 325 325 325 325 325 325 326 327 327 328 329 332 339 351 2 6 8 9 8 7 7 7 7 7 6 6 6 7 8 8 8 7 6 6 6 5 4 6 12
322 324 325 326 326 326 326 326 326 327 328 329 329 331 335 343 359 16 23 24 21 17 14 13 12 11 11 11 12 13 14 15 15 15 15 15 14 14 14 15 17 23 36
324 325 326 326 326 326 326 327 327 328 329 331 333 336 347 13 39 45 43 35 27 22 20 18 17 16 17 18 20 21 22 22 22 22 22 21 21 22 23 25 29 36 50